Current weather by "City, St" or "zip code"  
 
Advertise Here

Current Conditions: Tupelo, Tupelo Regional Airport, MS

A Few Clouds


85.0 F

Last Updated on Aug 4 2020, 4:53 pm CDT
Humidity: 57%
Wind Speed: N 9.2 mph
Barometer 29.97 in
Dewpoint: 68.0 F
Visibility: 10.00 mi
Precip: --
Heat Index: 88 F
Wind Chill: NA
Current conditions at:

Tupelo, Tupelo Regional Airport, MS (KTUP)

Lat: 34.26806 Lon: 88.77

Local Radar Image active severe weather and emergency alerts image image weather storm and storm spotter reports image weather observation monitoring service image
Local
Radar
Active
Alerts
Storm Reports Obs
Monitoring

Sign-up For Email & Text Message Weather Alert Notification Services


Advertise Here

Observation History for Tupelo, Tupelo Regional Airport, MS


Time Wind
(mph)
Vis
(mi)
Weather Precip (in) Temperature (F) Relative
Humidity
Wind
Chill
(F)
Heat
Index
(F)
Pressure
Air Dwpt altimeter
(in)
sea level
(mb)
Rmks
4:53 pm CDT N 9.2 10.00 A Few Clouds -- 85.0 68.0 57% NA 88 29.97 1014.4
3:53 pm CDT N 13.8 10.00 A Few Clouds -- 85.0 69.1 59% NA 89 29.97 1014.4
2:53 pm CDT N 11.5 10.00 Overcast -- 82.0 72.0 72% NA 87 29.98 1014.9
1:53 pm CDT N 6.9 10.00 Mostly Cloudy -- 82.0 73.0 74% NA 87 29.99 1014.9
12:53 pm CDT N 8.1 10.00 Overcast 00.20 77.0 71.1 82% NA NA 29.99 1015.1
11:53 am CDT N 0.0 10.00 Partly Cloudy -- 86.0 69.1 57% NA 90 29.99 1014.9
10:53 am CDT 4.6 10.00 A Few Clouds -- 84.0 69.1 61% NA 88 29.99 1015.1
9:53 am CDT N 0.0 10.00 Fair -- 80.0 69.1 69% NA 83 29.99 1015.1
8:53 am CDT N 6.9 10.00 Fair -- 77.0 71.1 82% NA NA 29.98 1014.7
7:53 am CDT N 6.9 10.00 Fair -- 74.0 70.0 88% NA NA 29.97 1014.3
6:53 am CDT N 0.0 8.00 Partly Cloudy -- 72.0 69.1 91% NA NA 29.96 1014.1
5:53 am CDT N 4.6 9.00 A Few Clouds -- 71.0 68.0 90% NA NA 29.95 1013.6
4:53 am CDT N 0.0 8.00 Fair -- 71.0 69.1 94% NA NA 29.94 1013.5
3:53 am CDT N 0.0 10.00 Mostly Cloudy -- 72.0 69.1 91% NA NA 29.94 1013.3
2:53 am CDT N 0.0 10.00 Fair -- 72.0 69.1 91% NA NA 29.93 1013.1
1:53 am CDT N 0.0 5.00 Fog/Mist -- 72.0 70.0 94% NA NA 29.92 1012.8
12:53 am CDT NW 4.6 9.00 Fair -- 73.0 70.0 90% NA NA 29.94 1013.3
11:53 pm CDT N 0.0 9.00 Fair -- 73.0 71.1 94% NA NA 29.94 1013.5
10:53 pm CDT N 0.0 9.00 Fair -- 74.0 72.0 94% NA NA 29.94 1013.4
9:53 pm CDT N 0.0 10.00 Fair -- 75.0 72.0 90% NA NA 29.94 1013.3
8:53 pm CDT N 0.0 10.00 A Few Clouds -- 75.0 72.0 90% NA NA 29.94 1013.2
7:53 pm CDT S 6.9 10.00 Thunderstorm in Vicinity 00.19 77.0 70.0 79% NA NA 29.93 1013.1
6:53 pm CDT W 6.9 10.00 Overcast Trace 84.0 68.0 59% NA 87 29.91 1012.3
5:53 pm CDT W 4.6 10.00 Fair -- 89.0 64.9 45% NA 91 29.89 1011.9

Regional Weather Observation


Corinth, MS (KCRX)

Partly Cloudy
82.0 F

Oxford, University-Oxford Airport, MS (KUOX)

A Few Clouds
84.0 F

Olive Branch, Olive Branch Airport, MS (KOLV)

Mostly Cloudy
81.0 F

Monroe County Airport, MS (KM40)

Fair
84.0 F

Columbus Air Force Base, MS (KCBM)

Fair
86.0 F

Memphis International Airport, TN (KMEM)

Partly Cloudy
83.0 F